Regional Weather Roundup
Issued by NWS Upton, NY

Current Version | Previous Version | Text Only | Print | Product List | Glossary On
Versions: 1 2 3 4 5 6 7 8 9 10 11 12 13 14 15 16 17 18 19 20 21 22 23 24 25 26 27 28 29 30 31 32 33 34 35 36 37
000
ASUS41 KOKX 221605
RWROKX

REGIONAL WEATHER ROUNDUP
NATIONAL WEATHER SERVICE NEW YORK NY
1200 PM EDT WED OCT 22 2014

NOTE: "FAIR" INDICATES FEW OR NO CLOUDS BELOW 12,000 FEET WITH NO
SIGNIFICANT WEATHER AND/OR OBSTRUCTIONS TO VISIBILITY.

NYZ071-072-176-178-NJZ106-104-221700-
NEW YORK CITY METRO AREA


CITY           SKY/WX    TMP DP  RH WIND       PRES   REMARKS
CENTRAL PARK   CLOUDY    56  51  84 NE10G17   29.94F
LAGUARDIA APRT LGT RAIN  56  51  84 NE15      29.92S
KENNEDY INTL   CLOUDY    56  52  86 N17G24    29.91F
NEWARK/LIBERTY LGT RAIN  55  52  89 N14       29.92S
BRNX BOT. GARD   N/A     55  50  82 NE12      29.91F
TETERBORO      CLOUDY    56  49  77 N12G23    29.92S
$$

NYZ177-179-078>081-221700-
LONG ISLAND NEW YORK

CITY           SKY/WX    TMP DP  RH WIND       PRES   REMARKS
FARMINGDALE    CLOUDY    56  52  86 NE14G28   29.90F
ISLIP          LGT RAIN  56  52  86 N16G26    29.88F
SHIRLEY        LGT RAIN  57  53  86 N9        29.89F
WESTHAMPTON    LGT RAIN  58  53  84 N20       29.89F
MONTAUK POINT    N/A     59  55  87 N13G31    29.89F
$$

NYZ052-065-067-221700-
HUDSON VALLEY

CITY           SKY/WX    TMP DP  RH WIND       PRES   REMARKS
WHITE PLAINS   CLOUDY    55  49  80 NE14G22   29.93R
NEWBURGH       CLOUDY    52  48  87 NE12G17   29.99F
MONTGOMERY     CLOUDY    53  47  79 NE16G29   29.97F
POUGHKEEPSIE   CLOUDY    53  47  79 N14       29.98F
ALBANY         CLOUDY    52  45  77 N10       30.09F
$$

NJZ001-105-106-008-010-013-015-019>022-104-221700-
NEW JERSEY

CITY           SKY/WX    TMP DP  RH WIND       PRES   REMARKS
NEWARK/LIBERTY LGT RAIN  55  52  89 N14       29.92S
TETERBORO      CLOUDY    56  49  77 N12G23    29.92S
CALDWELL       CLOUDY    54  48  80 NE6       29.94F
MORRISTOWN     CLOUDY    55  52  88 NE9G20    29.94F
SOMERVILLE     CLOUDY    56  49  77 NE7G22    29.91F
SUSSEX         CLOUDY    56  48  74 NE13G22   29.97F
ANDOVER          N/A     52  48  86 NE12G21   29.96F
TRENTON        LGT RAIN  54  50  86 N14G22    29.89F
MILLVILLE      CLOUDY    57  51  80 N17G24    29.83S
ATLANTIC CITY  CLOUDY    60  54  80 NE22G30   29.81S
WRIGHTSTOWN    LGT RAIN  55  54  97 N16       29.85F
TOMS RIVER     CLOUDY    55  52  88 NE10G17   29.85S
BELMAR         CLOUDY    54  48  82 N15       29.87F
$$

PAZ047>061-062-071-221700-
EASTERN PENNSYLVANIA

CITY           SKY/WX    TMP DP  RH WIND       PRES   REMARKS
PHILADELPHIA   HVY RAIN  56  51  84 NE18G25   29.88S
ALLENTOWN      CLOUDY    56  49  77 N9        29.95F
SCRANTON       CLOUDY    53  46  77 N12       30.01S
$$

CTZ002-004>006-009-010-012-RIZ004-006-007-MAZ004-011-015-221700-
SOUTHERN NEW ENGLAND
 IN CT

CITY           SKY/WX    TMP DP  RH WIND       PRES   REMARKS
BRADLEY INTL   CLOUDY    56  47  71 N20G25    29.98F
HARTFORD       CLOUDY    56  48  74 NE7G25    29.97F
DANBURY        CLOUDY    55  46  71 NE10G20   29.96F
WTRBRY/OXFORD  CLOUDY    54  45  71 MISG      29.94F
BRIDGEPORT     CLOUDY    57  51  80 NE16      29.93S
MERIDEN        CLOUDY    55  49  80 N9G21     29.96S
NEW HAVEN      CLOUDY    59  51  75 N20G26    29.93S
CHESTER        CLOUDY    55  52  88 NE9G16    29.94S
GROTON         LGT RAIN  56  52  86 NE23G33   29.90F
WILLIMANTIC    CLOUDY    54  49  83 NE20G30   29.96S

 IN RI

CITY           SKY/WX    TMP DP  RH WIND       PRES   REMARKS
PROVIDENCE     DRIZZLE   54  51  90 N23       29.95F
BLOCK ISLAND   CLOUDY    57  52  82 NE22G33   29.87F
WESTERLY       LGT RAIN  56  53  90 N12G21    29.91F

 IN MA

CITY           SKY/WX    TMP DP  RH WIND       PRES   REMARKS
BOSTON         DRIZZLE   52  50  93 N23G30    29.99F FOG
WORCESTER      LGT RAIN  47  46  97 NE15G24   29.99F FOG
WESTFIELD      CLOUDY    53  46  77 N16G22    30.01F
PROVINCETOWN   CLOUDY    57  54  88 NE23G30   29.92F
NANTUCKET      CLOUDY    59  58  96 NE20G25   29.84F FOG
$$

ANZ330-335-338-340-345-350-353-355-221700-
COASTAL MARINE OBSERVATIONS


STATION/POSITION TIME  SKY/WX   TEMP    WIND        PRES    VSBY  WAVE
                                AIR SEA DIR/SP/G                  HT/PER
                 (UTC)          (F)     (DEG/KT/KT) (MB)    (MI)  (FT/S)
NY HARB ENTRANCE NOT AVBL
4S FIRE IS       1600               63                N/A           6/ 7
20S FIRE ISLAND  1600            59 64   30/ 27/ 33 1009.5          8/ 6
23SW MTP         1600                                 N/A           8/ 7
HUDSON CANYON    1600            58 66   60/ 17/ 19 1007.6
EXECUTION ROCKS  1500            58 63   20/ 17/ 23   N/A
WESTERN LI SOUND 1600            58      30/ 17/ 23   N/A           2/ 5
CENTRAL LI SOUND 1500            58 64   40/ 19/ 23   N/A           3/ 3
EASTERN LI SOUND 1500            60 63   60/ 19/ 27   N/A
ROBBINS REEF     1600            55     360/ 17/ 21 1011.5
$$


>>>>>>>>>>>>>>>>>>>>>>>>>>>> KEY <<<<<<<<<<<<<<<<<<<<<<<<<<<
>                                                          <
>     SKY/WX - SKY CONDITION/PRESENT WEATHER               <
>     TMP    - TEMPERATURE IN FAHRENHEIT                   <
>     DP     - DEWPOINT IN FAHRENHEIT                      <
>     RH     - RELATIVE HUMIDITY IN PERCENT                <
>     WIND   - DIRECTION AND SPEED IN MPH                  <
>     PRES   - MEAN SEA LEVEL PRESSURE IN INCHES OF HG     <
>     WCI    - WIND CHILL INDEX                            <
>     VSB    - VISIBILITY IN MILES                         <
>     HX     - HEAT INDEX                                  <
>     TC     - TEMPERATURE IN CELSIUS                      <
>     VRB    - VARIABLE WIND DIRECTION                     <
>                                                          <
>>>>>>>>>>>>>>>>>>>>>>>>>>>> KEY <<<<<<<<<<<<<<<<<<<<<<<<<<<





USA.gov is the U.S. government's official web portal to all federal, state and local government web resources and services.